CST,Max TemperatureF,Mean TemperatureF,Min TemperatureF,Max Dew PointF,MeanDew PointF,Min DewpointF,Max Humidity, Mean Humidity, Min Humidity, Max Sea Level PressureIn, Mean Sea Level PressureIn, Min Sea Level PressureIn, Max VisibilityMiles, Mean VisibilityMiles, Min VisibilityMiles, Max Wind SpeedMPH, Mean Wind SpeedMPH, Max Gust SpeedMPH,PrecipitationIn, CloudCover, Events, WindDirDegrees
2011-11-1,83,71,58,54,50,46,75,52,28,30.05,29.97,29.88,10,10,10,26,14,35,0.00,0,,183
2011-11-2,87,66,45,56,44,28,72,50,28,30.42,30.04,29.87,10,10,10,37,18,46,0.00,1,,236
2011-11-3,60,47,34,30,22,17,69,44,19,30.52,30.39,30.29,10,10,10,16,6,25,0.00,0,,345
2011-11-4,72,51,30,24,21,17,63,40,16,30.27,30.14,29.99,10,10,10,14,5,20,0.00,0,,151
2011-11-5,75,61,46,56,39,21,68,49,29,29.97,29.84,29.73,10,10,10,26,13,37,0.00,0,,169
2011-11-6,83,73,62,58,52,39,84,55,26,29.98,29.89,29.83,10,10,10,15,5,18,0.00,4,,213
2011-11-7,83,73,63,63,61,58,81,62,43,29.93,29.83,29.74,10,10,10,26,14,37,0.00,3,,163
2011-11-8,72,62,51,63,40,19,73,45,16,30.22,29.95,29.71,10,9,1,30,14,36,0.30,2,Rain-Thunderstorm,271
2011-11-9,61,51,40,36,32,26,79,53,27,30.48,30.38,30.24,10,10,10,20,10,24,0.00,0,,6
2011-11-10,63,47,31,36,29,23,89,56,23,30.56,30.43,30.30,10,10,10,9,4,13,0.00,0,,222
2011-11-11,70,51,31,32,25,23,75,46,17,30.28,30.12,29.95,10,10,10,24,12,32,0.00,0,,200
2011-11-12,78,67,55,45,35,26,59,39,19,29.95,29.89,29.82,10,10,10,24,16,31,0.00,0,,199
2011-11-13,84,72,59,54,46,37,72,46,20,29.87,29.82,29.73,10,10,10,22,13,26,0.00,0,,206
2011-11-14,79,66,52,60,53,45,80,60,39,29.92,29.82,29.70,10,10,10,17,6,21,0.00,1,,203
2011-11-15,81,67,53,56,47,37,86,56,25,29.81,29.75,29.67,10,9,4,14,7,16,0.00,1,,263
2011-11-16,74,58,42,40,35,25,70,48,25,30.35,30.02,29.81,10,10,10,23,9,26,0.00,0,,350
2011-11-17,62,48,33,37,26,21,62,46,29,30.49,30.34,30.19,10,10,10,17,7,23,0.00,0,,80
2011-11-18,65,56,47,54,48,39,82,73,63,30.16,29.99,29.85,10,10,10,29,14,38,0.00,3,,185
2011-11-19,81,70,59,58,53,44,84,57,30,29.91,29.85,29.78,10,10,10,24,12,33,0.00,2,,200
2011-11-20,68,58,47,59,50,43,86,77,67,30.13,30.03,29.89,10,8,1,14,6,15,0.00,7,,53
2011-11-21,64,56,47,52,47,44,93,79,65,30.11,30.02,29.86,10,4,0,15,8,18,0.00,6,Fog,44
2011-11-22,68,54,39,48,42,36,89,66,42,30.27,30.12,29.99,10,9,2,20,7,26,0.00,1,,315
2011-11-23,72,54,36,46,38,33,100,65,29,30.37,30.28,30.21,10,6,0,8,3,9,0.00,2,Fog,229
2011-11-24,75,58,40,47,41,36,86,58,29,30.23,30.15,30.04,10,10,10,20,8,25,0.00,0,,177
2011-11-25,69,62,54,57,52,45,84,70,55,30.06,29.91,29.82,10,10,9,25,12,32,0.02,5,Rain,183
2011-11-26,62,55,47,48,35,20,78,54,30,30.41,30.12,29.85,10,10,10,35,18,41,0.00,4,,322
2011-11-27,57,44,31,19,10,0,52,32,11,30.52,30.41,30.30,10,10,10,26,11,31,0.00,0,,304
2011-11-28,74,51,28,19,15,9,50,30,10,30.27,30.12,30.00,10,10,10,16,6,21,0.00,0,,251
2011-11-29,64,48,32,27,22,17,56,38,20,30.31,30.22,30.05,10,10,9,15,5,21,0.00,0,,23
2011-11-30,67,47,27,32,26,20,75,49,22,30.29,30.15,29.99,10,10,10,17,7,21,0.00,0,,204